Lid_Strength_Index
2 2 2 3 3 3 3 2 3 3 3 2 2 1 1 1 1 3 5 4 6 3 1 2 3 4 4 6 5 5 10 11 9 9 8 6 8 6 5 6 6 5 5 4 3
1 1 1 1 2 2 2 2 2 3 3 3 2 2 2 2 3 5 3 2 2 3 4 4 5 5 6 6 6 8 11 10 7 6 7 7 7 6 7 7 6 6 5 4 3
1 1 0 1 1 2 2 2 1 2 2 3 3 3 3 2 6 7 3 1 1 2 5 5 5 6 7 6 7 8 10 8 7 7 7 7 7 6 7 7 6 6 5 4 4
2 1 1 1 1 1 2 1 1 1 2 2 3 3 3 4 12 7 3 2 0 3 7 7 6 8 8 9 7 10 8 8 8 8 8 8 7 7 7 6 5 5 4 4 4
2 1 1 1 1 1 1 2 1 1 1 1 2 2 4 7 7 3 2 2 4 5 7 8 8 8 10 9 8 9 8 8 7 8 8 8 9 8 7 5 5 6 5 4 4
2 2 1 1 1 1 1 1 1 1 1 1 1 2 5 10 3 3 4 4 5 6 8 8 8 7 9 9 10 8 8 8 8 8 8 9 9 8 7 6 6 6 6 5 5
2 2 2 2 2 1 1 0 1 1 2 2 1 2 6 7 2 2 4 5 5 6 8 7 7 8 8 10 8 9 11 9 9 8 9 8 10 10 7 6 7 7 6 6 5
2 2 2 2 2 2 1 1 0 1 1 2 2 3 8 3 2 3 2 4 4 4 5 5 6 8 9 8 10 11 11 13 10 9 9 9 12 8 6 7 7 7 7 6 6
2 2 2 2 2 2 1 1 0 0 1 1 3 5 9 3 5 2 2 4 4 5 5 5 7 9 9 11 13 12 15 14 12 9 9 10 12 8 6 7 7 7 6 6 5
1 1 2 2 2 2 1 1 1 0 1 2 3 8 6 8 5 3 2 3 4 5 7 8 9 12 12 12 17 15 14 13 13 11 10 11 12 9 8 8 8 7 6 6 6
1 1 1 1 1 1 1 2 5 6 5 8 7 7 6 4 4 4 3 4 4 5 10 9 12 15 14 12 12 12 12 13 12 10 12 12 12 10 8 8 8 7 7 6 5
0 0 0 0 0 -0 0 5 5 4 9 6 5 5 5 4 8 5 3 7 7 10 8 10 14 11 11 12 12 13 14 14 12 10 12 12 12 10 9 9 8 8 7 6 5
-1 -0 -0 -0 -0 0 2 3 1 1 8 7 5 6 5 5 8 8 4 6 8 9 9 12 12 9 10 12 13 13 14 14 13 12 11 12 13 12 10 9 8 7 7 7 6
-2 -1 -1 -1 2 1 3 0 -0 0 11 10 9 6 5 5 9 5 4 5 8 10 9 9 8 10 11 12 12 15 11 12 12 13 16 11 17 12 10 10 9 9 8 7 7
-1 -1 -1 -1 1 3 1 -1 -0 2 19 8 7 3 4 7 6 7 3 5 9 9 9 11 10 10 12 12 10 13 10 11 11 13 13 14 16 15 11 12 11 9 8 8 6
-1 -1 -2 0 0 0 -1 -0 2 13 18 10 7 8 8 7 7 5 6 4 5 8 8 9 6 7 8 9 10 9 10 10 11 12 16 16 15 16 13 12 11 9 8 7 7
-1 -1 -1 -0 3 -1 -1 4 14 17 8 12 11 9 9 9 9 8 8 10 12 15 14 11 10 7 7 9 9 10 11 16 18 18 20 13 14 15 12 10 10 9 8 8 8
-1 -1 -1 -0 -1 -1 2 9 17 12 12 8 8 9 12 9 9 9 10 12 9 10 12 14 17 10 8 9 11 11 11 15 20 19 18 12 17 15 11 9 9 9 9 8 8
-1 0 1 0 -1 0 7 14 14 11 8 9 9 11 12 10 9 10 11 12 9 9 13 14 14 8 8 7 8 11 13 12 13 14 15 13 14 11 10 11 10 9 9 9 9
2 3 3 -1 -1 3 10 12 11 7 7 8 12 10 13 12 12 12 11 9 10 7 7 10 15 9 9 7 7 9 9 14 14 19 20 16 15 14 12 11 10 9 9 8 8
2 7 2 -1 1 7 13 11 10 6 6 9 10 11 10 12 11 12 11 9 7 8 7 9 11 12 9 12 12 11 12 11 11 13 17 18 16 11 11 9 9 9 8 8 8
5 9 1 0 9 9 11 9 8 8 6 7 7 8 10 10 12 12 12 9 6 7 10 8 11 15 14 9 8 9 10 11 15 16 13 14 15 9 8 8 9 8 8 8 7
7 7 1 2 12 11 9 9 8 8 8 9 9 8 8 10 13 11 10 7 6 8 10 8 13 17 15 12 11 12 10 10 10 11 14 16 14 9 10 10 9 8 8 8 7
6 10 7 6 7 9 10 11 11 7 8 8 9 8 9 11 10 13 11 8 8 7 7 8 13 14 16 13 10 15 12 11 11 15 14 13 12 9 9 9 8 7 7 7 7
6 8 7 11 10 9 9 9 11 11 8 7 10 10 10 13 12 12 10 9 8 8 8 9 14 14 11 10 10 13 12 12 13 12 14 12 11 10 8 8 7 7 7 7 7
7 8 7 8 8 9 9 11 11 10 10 11 10 10 10 11 10 12 9 9 10 8 10 9 14 13 15 12 11 13 12 12 12 11 11 11 11 7 6 6 6 7 7 7 7
3 3 5 8 9 10 10 10 10 8 8 7 8 9 11 10 7 7 7 7 8 10 11 11 13 14 16 13 14 16 13 12 11 10 10 13 9 7 8 8 7 7 6 6 7